Temperature
12 12 12 12 12 12 12 12 12 12 12 12 11 11 11 11 11 11 11 11 11 11 11 10 10 10 10 11 11 11 11 11 11 11 11 11 11 11 11 11 11 11 10
12 12 12 12 12 11 11 11 11 11 11 11 11 11 11 11 11 11 11 10 10 10 10 10 10 10 10 10 10 10 11 11 11 11 11 11 11 11 11 10 10 10 10
11 11 11 11 11 11 11 11 11 11 11 10 11 11 10 10 10 10 10 10 10 10 10 9 9 9 9 9 10 10 10 10 10 10 10 10 10 10 10 10 10 10 10
11 11 11 11 11 11 10 10 10 10 10 10 10 10 10 10 10 10 9 9 9 9 9 9 9 9 9 9 9 9 10 10 10 10 10 10 10 10 10 10 9 9 9
11 11 11 11 10 10 10 10 10 10 10 10 10 10 10 10 9 9 9 9 9 9 9 9 9 9 9 9 9 9 9 9 9 9 9 10 10 9 9 9 9 9 9
10 10 10 10 10 10 10 10 9 9 9 9 9 9 9 9 9 9 9 8 8 8 8 8 8 8 8 8 8 8 8 9 9 9 9 9 9 9 9 9 8 8 8
10 10 10 10 10 10 9 9 9 9 9 8 8 8 9 9 8 8 8 8 8 8 8 8 8 8 8 8 8 8 8 8 8 8 9 9 9 8 8 8 8 8 8
10 10 9 9 9 9 9 9 9 9 8 8 8 7 7 8 8 8 8 8 8 8 8 8 8 8 8 8 8 8 8 8 8 8 8 8 8 8 8 8 8 8 8
9 9 9 9 9 9 9 8 8 8 8 8 7 7 7 6 7 7 7 8 8 8 8 8 8 7 7 7 7 7 8 8 7 8 8 8 8 7 7 7 7 7 7
9 9 9 8 8 8 8 8 8 8 8 8 7 7 7 6 6 6 7 7 7 7 7 7 7 7 7 7 7 7 7 7 7 7 7 7 7 7 7 7 7 7 7
9 8 8 8 8 8 8 8 8 8 7 7 7 7 7 6 6 6 6 7 7 7 7 7 7 7 7 7 7 7 7 7 7 7 7 7 7 6 6 6 6 6 6
9 8 8 8 8 8 8 8 7 7 7 7 7 7 6 6 6 6 6 6 6 6 7 6 6 6 6 6 6 6 6 6 6 6 6 6 6 6 6 6 6 6 6
8 8 8 8 8 8 7 7 7 7 7 7 6 6 6 6 6 6 5 5 5 6 6 6 6 6 6 6 6 6 6 6 6 6 6 6 6 6 5 5 5 6 6
8 8 8 8 7 7 7 7 7 7 6 6 6 6 6 6 6 5 5 5 5 5 5 5 5 5 5 5 5 5 5 6 5 6 5 5 5 5 5 5 5 5 5
8 8 8 7 7 7 7 7 6 6 6 6 6 6 6 6 5 5 5 5 4 4 4 5 5 5 5 5 5 5 5 5 5 5 5 5 5 5 5 5 5 5 5
7 7 7 7 7 7 6 6 6 6 6 6 6 5 5 6 5 5 5 5 4 4 4 4 4 4 4 4 4 4 4 5 5 5 4 4 4 4 4 4 4 4 4
7 7 7 7 7 6 6 6 6 5 5 5 5 5 5 5 5 5 5 5 4 4 4 4 4 4 4 4 4 4 4 4 4 4 4 4 4 4 4 4 4 4 4
7 7 7 6 6 6 6 6 6 5 5 5 5 5 5 5 5 5 5 4 4 4 4 4 4 4 4 4 4 4 4 4 4 4 4 4 4 4 4 4 4 4 4
6 6 6 6 6 6 6 6 5 5 5 5 5 5 5 5 5 5 4 4 4 4 4 3 3 3 3 3 3 4 4 4 4 4 4 4 4 4 3 3 3 3 3
6 6 6 6 5 5 5 5 5 5 5 5 4 4 4 4 4 4 4 4 4 3 3 3 3 3 3 3 3 3 3 4 4 4 3 3 3 3 3 3 3 3 3
5 5 5 5 5 5 5 5 5 5 4 4 4 4 4 4 4 4 4 4 3 3 3 3 3 3 3 3 3 3 3 3 3 3 3 3 3 3 3 3 3 3 3
5 5 5 5 5 5 5 5 5 4 4 4 4 4 4 4 3 3 3 3 3 3 3 3 3 3 3 3 3 3 3 3 3 3 3 3 3 3 2 2 2 2 2
4 4 4 4 4 4 4 4 4 4 4 4 4 4 3 3 3 3 3 3 3 3 3 3 2 2 2 2 2 2 2 2 2 2 2 3 3 2 2 2 2 2 2
4 4 4 4 4 4 4 4 4 4 4 4 4 3 3 3 3 3 3 3 3 3 2 2 2 2 2 2 2 2 2 2 2 2 1 1 2 2 2 1 1 1 1
4 4 4 4 4 4 4 4 3 4 3 3 3 3 3 3 3 3 3 3 3 2 2 2 2 2 2 2 2 2 2 2 2 1 1 1 1 1 1 1 1 1 1
3 3 3 3 3 3 3 3 3 3 3 3 3 3 3 3 3 2 2 2 2 2 2 2 2 2 2 2 2 1 1 1 1 1 0 0 0 -0 0 0 -0 0 0
Wind_Speed
1 1 1 2 2 2 2 2 2 2 2 2 2 2 2 2 3 3 4 6 7 7 8 8 9 10 10 10 10 10 10 9 9 9 8 8 8 8 9 9 9 9 9
2 2 1 1 1 1 1 1 1 1 1 1 2 2 2 3 3 3 4 5 7 8 8 8 9 10 10 11 11 11 11 11 10 9 9 9 9 9 10 10 10 10 11
3 2 1 1 0 0 1 1 1 1 1 2 3 3 2 2 3 3 4 4 5 7 8 9 9 10 10 11 11 11 11 12 11 10 10 10 11 11 11 11 11 11 11
3 2 1 1 1 0 1 0 0 1 2 2 3 3 3 2 3 3 4 4 4 5 7 9 10 10 11 11 11 11 11 12 12 11 11 11 11 12 12 12 12 12 12
2 2 1 1 1 1 0 0 0 0 1 2 3 3 3 3 3 3 3 4 5 5 5 7 9 10 10 11 11 11 12 12 13 12 11 11 11 12 13 13 13 13 13
2 2 1 1 1 1 0 0 1 1 1 2 3 4 4 3 2 2 3 3 4 5 5 5 6 7 10 11 12 12 13 13 13 12 12 12 11 12 13 13 13 13 13
1 1 1 1 1 1 1 1 1 1 1 1 2 3 3 3 2 2 2 2 3 4 4 4 5 5 6 10 12 12 13 13 13 12 12 12 12 12 13 13 13 13 14
1 1 1 1 1 1 1 1 0 0 1 1 1 1 3 3 3 3 2 3 3 3 3 5 5 6 6 6 9 12 12 13 14 13 12 12 13 13 12 12 13 13 13
2 2 2 1 1 2 2 2 2 1 1 1 0 1 0 2 4 3 2 3 3 3 3 4 5 6 7 6 7 9 11 12 13 13 14 13 12 13 12 11 12 12 13
1 1 1 2 2 2 2 2 2 2 2 2 1 1 2 2 2 3 3 3 3 4 4 4 4 5 6 6 7 10 10 11 12 12 13 12 11 11 11 11 12 12 13
1 1 1 1 2 2 2 2 2 2 2 2 2 1 1 1 2 2 5 5 4 3 3 3 4 4 5 5 5 7 9 10 10 10 11 10 10 11 11 12 12 13 13
1 1 1 1 2 2 2 3 2 2 2 2 2 2 2 2 2 2 4 5 6 5 4 3 3 4 5 5 6 9 9 9 10 10 10 9 10 11 11 12 13 14 14
2 3 2 2 2 2 3 2 2 3 3 3 3 3 2 2 2 2 3 4 4 4 3 3 3 3 5 5 6 9 8 9 10 10 9 9 10 11 12 12 13 14 14
3 2 2 2 2 2 2 2 2 2 2 3 3 3 2 2 2 2 2 2 4 4 3 3 3 3 4 5 7 10 7 9 10 10 9 9 10 11 11 12 13 14 14
2 2 2 2 2 2 1 1 1 2 2 2 3 2 2 2 2 2 2 2 2 4 5 4 3 3 5 5 8 7 6 9 10 10 9 10 10 10 12 12 12 13 14
1 1 1 1 1 1 1 1 1 1 1 2 2 2 2 2 2 2 2 2 2 3 4 3 3 4 5 6 8 7 7 10 10 10 10 10 10 11 12 12 13 13 13
1 1 1 1 1 1 1 1 1 1 1 2 2 2 3 2 2 2 1 1 1 1 4 5 4 4 5 5 6 6 6 6 6 9 10 11 11 12 12 12 12 13 14
1 1 1 1 1 1 1 1 2 1 1 2 2 2 2 2 2 1 1 1 2 2 2 5 5 4 5 5 5 5 6 6 5 8 10 11 11 12 13 13 13 13 14
1 1 1 1 1 1 1 2 1 1 2 2 2 2 2 2 2 1 1 1 2 2 2 3 5 4 4 4 5 5 5 5 6 7 9 10 11 11 12 13 13 13 13
1 1 1 1 2 1 1 1 1 1 1 2 2 2 2 2 2 2 1 2 1 1 2 2 3 4 4 4 4 5 5 5 5 6 8 9 10 11 12 12 13 13 13
1 1 1 1 1 1 1 1 1 1 1 1 1 1 1 2 2 1 1 1 1 1 2 2 3 3 4 5 4 4 5 6 5 4 5 6 6 6 8 11 13 14 13
1 1 1 1 1 2 2 1 1 1 1 1 1 2 2 1 2 2 2 2 2 1 1 2 2 3 4 4 4 4 4 4 4 4 5 6 4 5 6 7 13 15 14
0 1 1 1 2 2 2 1 1 1 0 1 1 1 2 2 2 1 2 3 3 4 2 1 2 3 4 4 3 4 4 4 4 5 5 5 5 5 6 9 13 14 13
1 1 1 1 1 2 2 1 1 1 0 0 1 0 1 1 2 1 2 2 3 3 3 2 1 2 2 2 2 2 3 3 2 3 3 3 4 4 6 7 11 14 15
1 1 1 1 1 2 1 0 2 0 0 1 1 1 1 0 2 3 3 2 3 4 5 6 6 5 6 6 4 3 3 3 3 3 3 3 4 5 5 4 8 14 15
1 1 1 1 1 2 2 1 2 1 0 1 1 1 2 2 3 3 2 2 2 2 3 5 6 7 6 7 9 5 2 2 2 3 4 4 4 5 4 3 4 8 11
Wind_Direction
116 99 78 74 65 66 66 51 46 32 21 9 358 358 339 326 320 315 311 314 313 310 309 309 307 304 301 300 294 297 287 272 268 266 267 267 266 267 272 275 272 273 276
139 139 119 89 66 61 66 77 44 12 343 349 336 335 322 315 314 315 317 315 311 311 311 310 308 307 305 301 298 293 302 285 272 270 270 269 269 269 270 270 274 275 274
160 155 156 171 182 40 54 53 28 33 348 342 326 318 314 309 310 312 313 313 312 310 308 310 309 309 307 306 306 302 297 300 285 275 271 270 268 268 268 268 270 275 278
169 150 168 214 202 135 110 158 296 343 331 325 316 311 311 308 302 300 305 306 308 307 305 307 309 309 310 309 306 307 305 304 294 281 277 276 274 273 271 271 271 272 275
170 157 178 203 173 150 187 247 341 314 305 318 311 308 305 299 294 299 303 300 298 297 297 307 312 311 310 308 307 306 307 305 295 288 278 276 275 274 272 271 271 272 273
172 153 157 166 152 173 249 238 275 315 282 291 314 316 303 294 296 294 292 296 296 296 296 301 306 308 308 308 309 309 309 308 299 290 288 281 279 277 275 275 273 272 273
174 147 159 168 167 199 221 233 260 324 322 328 346 327 316 299 298 289 293 299 300 301 306 306 305 302 305 307 307 307 308 309 307 300 298 290 284 282 281 280 280 279 276
194 184 177 206 202 204 213 222 203 303 313 0 35 345 333 331 328 308 300 295 302 306 308 314 313 308 302 304 303 307 308 309 308 307 306 300 291 288 286 287 288 285 284
222 210 197 196 210 198 216 229 214 207 255 297 170 154 286 280 311 306 303 300 300 301 301 310 310 308 306 308 304 306 306 307 305 310 310 304 298 296 293 294 297 295 293
236 221 208 206 209 217 224 233 229 222 209 253 289 242 231 236 271 308 312 312 305 302 302 311 311 309 309 308 308 309 310 310 308 313 314 310 310 310 309 309 304 303 300
250 242 227 217 217 224 233 234 239 223 213 224 235 252 269 275 244 259 298 317 326 315 310 305 308 313 316 316 318 321 323 322 323 329 329 323 319 318 317 317 312 308 303
249 252 248 235 228 226 232 234 234 228 232 233 240 232 228 235 248 249 275 304 313 316 320 320 321 325 328 334 330 329 329 334 338 334 331 332 332 329 324 322 318 313 307
250 249 249 241 244 241 235 226 230 236 240 239 241 244 241 247 243 253 274 293 305 313 320 323 321 333 334 339 335 333 338 341 341 340 341 342 341 335 330 328 325 320 313
236 236 236 238 243 244 246 226 235 245 249 247 254 253 256 261 256 251 254 282 308 319 329 311 324 330 337 337 338 338 345 343 343 344 342 341 339 335 331 328 326 324 320
255 237 228 231 242 243 239 237 244 260 263 256 259 260 260 263 254 253 253 251 261 301 310 315 324 330 336 337 335 344 342 342 342 341 341 340 338 334 336 337 333 330 331
254 236 229 226 232 237 233 226 248 272 266 272 264 262 267 265 262 254 251 256 246 260 290 310 310 312 322 329 333 342 340 339 343 341 341 342 339 336 342 345 341 336 336
244 221 223 219 212 226 251 242 259 271 264 283 286 273 280 277 269 269 261 257 258 258 282 304 311 319 326 322 329 339 339 339 341 342 346 349 347 345 347 344 340 338 336
250 232 216 218 227 229 233 231 253 269 263 270 278 280 283 288 287 283 269 267 268 265 269 297 314 325 320 319 322 332 341 346 345 342 346 346 344 346 347 345 344 341 339
268 254 212 217 244 243 235 238 235 249 257 261 264 264 274 273 290 303 294 275 278 290 282 285 305 318 322 327 335 336 337 337 344 344 345 343 340 344 343 342 342 341 341
256 253 250 239 241 242 235 239 226 231 256 260 258 252 260 258 265 273 280 272 281 311 314 302 309 322 326 327 334 337 339 341 338 344 344 345 344 344 344 342 342 342 343
288 270 253 274 267 245 241 242 216 221 237 260 283 271 263 290 306 311 309 301 327 320 320 320 317 327 331 337 334 327 329 328 330 345 337 341 344 347 345 343 345 347 349
312 326 258 250 266 269 279 262 171 202 228 243 284 304 305 297 311 325 336 353 355 324 303 306 308 320 317 321 326 332 332 338 331 343 342 331 348 342 341 344 347 352 353
283 306 292 264 265 270 273 263 190 168 193 250 263 308 341 329 337 338 0 13 7 4 354 317 303 303 300 304 317 329 331 332 318 325 336 325 337 335 337 340 349 355 358
258 261 290 290 276 279 272 262 123 102 75 301 275 268 312 325 332 25 47 30 14 9 360 356 336 313 319 321 304 304 311 322 310 331 351 329 333 326 326 330 348 360 2
274 263 265 305 299 301 302 307 89 160 27 345 351 2 338 320 354 47 70 52 32 21 26 37 35 33 27 22 22 21 0 356 343 340 1 347 328 321 316 322 346 360 1
263 273 310 309 299 300 330 26 85 135 66 9 13 358 357 15 19 45 78 83 52 18 22 26 29 28 29 27 27 29 7 0 353 341 350 350 336 340 333 323 338 348 353
Height
1513 1513 1513 1513 1513 1513 1513 1512 1512 1511 1510 1510 1509 1508 1508 1507 1507 1507 1506 1506 1506 1505 1505 1504 1504 1504 1503 1503 1503 1503 1502 1502 1502 1502 1502 1502 1502 1502 1501 1501 1501 1501 1500
1512 1512 1512 1512 1512 1511 1511 1510 1510 1509 1508 1507 1507 1506 1505 1505 1504 1504 1503 1503 1503 1502 1501 1501 1500 1500 1499 1499 1499 1499 1498 1497 1497 1497 1497 1497 1497 1497 1497 1497 1496 1496 1496
1510 1510 1510 1510 1510 1509 1509 1508 1508 1507 1506 1505 1504 1504 1503 1502 1502 1501 1501 1500 1499 1499 1498 1497 1496 1496 1495 1495 1494 1494 1494 1493 1492 1492 1492 1492 1492 1492 1492 1492 1491 1491 1491
1508 1508 1508 1508 1508 1507 1507 1506 1506 1505 1504 1503 1502 1501 1501 1500 1499 1499 1498 1497 1496 1496 1495 1494 1493 1492 1491 1490 1490 1489 1489 1488 1488 1487 1487 1487 1487 1487 1487 1486 1486 1486 1485
1506 1506 1506 1506 1506 1505 1505 1504 1504 1503 1502 1501 1500 1499 1498 1497 1497 1496 1495 1494 1493 1492 1491 1490 1489 1488 1487 1486 1485 1484 1484 1483 1483 1482 1482 1482 1481 1481 1481 1481 1480 1480 1480
1504 1504 1504 1504 1503 1503 1503 1502 1501 1501 1500 1499 1498 1497 1496 1495 1494 1493 1493 1492 1491 1489 1488 1487 1486 1484 1483 1482 1481 1480 1479 1478 1478 1477 1476 1476 1476 1476 1475 1474 1474 1474 1474
1501 1501 1501 1501 1501 1501 1500 1500 1499 1499 1498 1497 1496 1494 1493 1492 1492 1491 1490 1489 1488 1487 1485 1484 1482 1481 1479 1478 1477 1476 1475 1474 1473 1473 1472 1471 1471 1470 1469 1468 1468 1468 1467
1499 1499 1499 1499 1499 1498 1498 1498 1497 1496 1496 1495 1494 1492 1491 1490 1489 1489 1488 1486 1485 1484 1482 1481 1479 1478 1476 1474 1473 1472 1471 1470 1469 1468 1467 1467 1466 1464 1464 1463 1462 1462 1461
1497 1497 1497 1496 1496 1496 1496 1495 1495 1494 1494 1494 1493 1493 1491 1488 1486 1485 1484 1484 1483 1481 1479 1478 1476 1475 1473 1471 1469 1468 1466 1465 1465 1463 1463 1462 1461 1459 1458 1457 1457 1456 1455
1494 1494 1494 1494 1494 1494 1493 1493 1493 1492 1492 1491 1491 1491 1491 1489 1487 1483 1482 1481 1480 1478 1477 1475 1474 1472 1470 1468 1466 1464 1463 1462 1460 1459 1458 1457 1456 1455 1454 1453 1452 1451 1450
1491 1492 1492 1492 1491 1491 1491 1491 1490 1490 1490 1489 1489 1488 1488 1487 1486 1484 1480 1478 1477 1476 1474 1473 1471 1469 1467 1465 1463 1461 1459 1458 1456 1455 1454 1452 1451 1450 1449 1448 1447 1445 1444
1488 1489 1489 1489 1489 1489 1488 1488 1488 1488 1487 1487 1486 1486 1485 1485 1483 1482 1479 1476 1474 1473 1471 1470 1468 1466 1465 1462 1460 1458 1456 1455 1453 1452 1450 1449 1448 1447 1445 1443 1442 1440 1438
1485 1486 1486 1486 1486 1486 1486 1486 1485 1485 1484 1484 1484 1483 1483 1482 1481 1480 1478 1475 1472 1470 1468 1467 1466 1464 1462 1460 1458 1456 1453 1452 1450 1449 1447 1446 1444 1443 1441 1439 1437 1435 1432
1483 1483 1483 1483 1483 1483 1483 1483 1482 1482 1481 1481 1481 1480 1480 1479 1479 1478 1476 1474 1470 1468 1466 1465 1464 1462 1460 1458 1456 1453 1451 1449 1448 1446 1445 1443 1441 1439 1437 1435 1433 1430 1427
1480 1480 1480 1480 1480 1480 1480 1479 1479 1479 1478 1478 1478 1477 1477 1476 1476 1475 1474 1473 1472 1467 1464 1463 1461 1460 1458 1456 1454 1451 1449 1447 1445 1444 1442 1440 1438 1436 1433 1431 1429 1426 1423
1477 1477 1477 1477 1477 1477 1477 1477 1476 1476 1475 1475 1474 1474 1473 1473 1472 1472 1471 1470 1469 1468 1464 1461 1460 1458 1456 1454 1452 1450 1448 1446 1444 1441 1439 1437 1435 1432 1430 1427 1425 1422 1419
1474 1474 1474 1474 1474 1474 1474 1474 1473 1473 1472 1472 1472 1471 1470 1470 1469 1469 1468 1467 1466 1465 1462 1459 1458 1456 1454 1452 1449 1448 1446 1443 1441 1439 1436 1434 1432 1429 1427 1424 1422 1419 1416
1471 1471 1471 1471 1471 1471 1471 1471 1470 1470 1470 1469 1468 1468 1467 1467 1466 1466 1465 1464 1463 1463 1461 1458 1456 1454 1452 1450 1447 1445 1443 1441 1439 1436 1434 1431 1429 1427 1424 1421 1418 1415 1412
1468 1468 1468 1468 1468 1469 1468 1468 1468 1467 1467 1466 1466 1465 1464 1464 1463 1463 1462 1461 1461 1460 1459 1456 1454 1452 1450 1448 1446 1443 1441 1439 1437 1434 1431 1429 1426 1424 1421 1418 1415 1412 1409
1465 1465 1465 1466 1466 1466 1466 1466 1465 1465 1464 1464 1463 1463 1462 1461 1461 1461 1460 1459 1458 1457 1456 1454 1452 1450 1448 1446 1444 1441 1438 1437 1434 1432 1429 1426 1424 1421 1419 1416 1413 1409 1406
1462 1462 1463 1463 1463 1463 1463 1463 1463 1462 1462 1461 1461 1460 1460 1459 1459 1459 1458 1457 1456 1455 1454 1452 1451 1449 1447 1445 1443 1440 1438 1435 1432 1430 1426 1424 1421 1419 1416 1413 1410 1407 1404
1460 1460 1460 1460 1460 1460 1461 1461 1461 1460 1459 1459 1458 1458 1457 1457 1457 1457 1456 1455 1454 1453 1452 1451 1449 1448 1446 1444 1442 1440 1437 1434 1430 1429 1425 1423 1420 1417 1414 1411 1408 1405 1402
1457 1457 1457 1457 1457 1458 1458 1459 1459 1458 1457 1457 1456 1456 1455 1455 1455 1454 1454 1453 1452 1451 1451 1450 1448 1447 1445 1444 1442 1439 1437 1434 1431 1428 1425 1421 1419 1416 1413 1410 1407 1404 1401
1455 1455 1455 1455 1455 1455 1456 1456 1456 1456 1455 1455 1454 1454 1453 1453 1452 1452 1452 1451 1450 1449 1449 1448 1447 1446 1445 1443 1441 1439 1437 1434 1431 1429 1425 1422 1418 1415 1412 1409 1406 1403 1400
1452 1452 1452 1452 1452 1453 1453 1454 1454 1454 1453 1453 1453 1452 1452 1451 1451 1451 1450 1449 1449 1448 1448 1447 1446 1445 1444 1442 1440 1438 1435 1433 1430 1428 1425 1422 1418 1414 1411 1409 1406 1403 1399
1450 1450 1450 1450 1450 1451 1451 1452 1452 1452 1451 1451 1451 1451 1450 1450 1450 1450 1449 1448 1447 1447 1446 1445 1445 1444 1442 1441 1439 1437 1435 1433 1430 1427 1425 1422 1419 1415 1411 1408 1406 1403 1399